Regional Weather Roundup
Issued by NWS

Home | Current Version | Previous Version | Text Only | Print | Product List | Glossary On
Versions: 1 2 3 4 5 6 7 8 9 10 11 12 13 14 15 16 17 18 19 20 21 22 23 24 25 26 27 28 29 30 31 32 33 34 35 36 37 38 39 40 41 42 43 44 45 46 47 48 49 50
000
ASUS45 KTFX 191210
RWRMT
MONTANA REGIONAL WEATHER ROUNDUP
NATIONAL WEATHER SERVICE GREAT FALLS MT
600 AM MDT SAT AUG 19 2017

NOTE: "FAIR" INDICATES FEW OR NO CLOUDS BELOW 12000 FEET WITH NO
SIGNIFICANT WEATHER AND/OR OBSTRUCTIONS TO VISIBILITY.

MTZ001>007-043-191300-
WEST OF THE DIVIDE

CITY           SKY/WX    TMP DP  RH WIND       PRES   REMARKS
KALISPELL      CLEAR     48  41  76 W5        29.94S
MISSOULA       CLEAR     55  36  48 CALM      30.01R
BUTTE          CLOUDY    49  28  44 CALM      30.11S
MULLAN PASS    CLEAR     52  38  58 VRB6      30.11S
ANACONDA         N/A     57  30  35 N3        30.08R
DEER LODGE       N/A     55  34  44 CALM      30.08S
EUREKA           N/A     55  37  50 MISG      29.90R
HAMILTON         N/A     63  36  36 W5        30.02S
LIBBY            N/A     54  39  58 CALM      29.91R
PLAINS           N/A     50  37  60 CALM      29.98R
RONAN            N/A     54  39  56 CALM      30.03S
$$

MTZ008-052>055-191300-
SOUTHWEST MONTANA

CITY           SKY/WX    TMP DP  RH WIND       PRES   REMARKS
BOZEMAN        CLOUDY    51  38  60 SE8       30.03S
DILLON         CLOUDY    54  34  46 SW10      30.06S
W YELLOWSTONE  CLOUDY    37  34  87 CALM      30.20R
ENNIS          CLOUDY    55  36  47 N9        30.12S
THREE FORKS      N/A     45  38  76 CALM      30.02R
TWIN BRIDGES     N/A     50  35  56 CALM      30.05R
$$

MTZ009-010-012-014-046-048-049-054-191300-
EAST SLOPES AND CENTRAL MONTANA

CITY           SKY/WX    TMP DP  RH WIND       PRES   REMARKS
CUT BANK       PTCLDY    50  42  74 N15       30.02R
GREAT FALLS    CLOUDY    59  29  31 W9        29.95R
MALMSTROM AFB  CLOUDY    66  31  26 W10       29.95R
HELENA         PTCLDY    70  33  25 SW5       30.01R HAZE
AUGUSTA          N/A     62  29  28 NW12      29.99R
BOWMANS CRNR     N/A     58  26  28 SW6       29.98R
CHOTEAU          N/A     59  36  41 NE23      30.00R
CONRAD           N/A     55  49  80 N2        30.02R
FAIRFIELD        N/A     58  27  30 W5        29.96R
POWER            N/A     58  45  60 N23       29.96R
RAYNESFORD       N/A     70  28  21 SW13      29.96R
ULM              N/A     65  29  26 W3        29.95R
$$

MTZ011-013-016-021-045-047-050-051-191300-
NORTH CENTRAL MONTANA

CITY           SKY/WX    TMP DP  RH WIND       PRES   REMARKS
HAVRE          PTCLDY    60  47  61 NW21G29   29.89R
LEWISTOWN      PTCLDY    63  29  27 W7        29.95R
N BAR RANCH      N/A     70  27  19 W13       29.97S
CHINOOK          N/A     63  41  45 NW9G20    29.87R
DENTON           N/A     69  29  22 W12       29.88R
GEYSER           N/A     61  29  29 W13       29.94R
GRASS RANGE      N/A     67  28  22 W15       29.89S
JUDITH GAP     MOCLDY    65  29  26 CALM      29.99R
WINIFRED         N/A     67  28  23 N8        29.91R
$$

MTZ017>020-022>027-061-062-191300-
NORTHEAST MONTANA

CITY           SKY/WX    TMP DP  RH WIND       PRES   REMARKS
GLASGOW        PTCLDY    60  39  45 W8        29.76R
JORDAN           N/A     60  32  34 W10       29.82R
SIDNEY         PTCLDY    56  49  77 S6        29.75S
WOLF POINT     PTCLDY    53  45  74 SW5       29.74R
MALTA          CLEAR     54  41  62 CALM      29.79R
PLENTYWOOD       N/A     61  50  67 CALM      29.73S
POPLAR           N/A     55  48  76 CALM      29.73S
SCOBEY           N/A     57  45  64 S5        29.74S
$$

MTZ028>42-056>058-191300-
SOUTHCENTRAL AND SOUTHEAST MONTANA

CITY           SKY/WX    TMP DP  RH WIND       PRES   REMARKS
BAKER          CLEAR     53  44  71 CALM      29.84S
BILLINGS       MOCLDY    64  32  30 SW12      29.93R
LIVINGSTON     PTCLDY    48  34  58 W5        30.02S
MILES CITY     CLEAR     57  33  40 SW6       29.82R
BIG TIMBER     CLOUDY    66  30  26 W16       30.01S
EKALAKA          N/A     72  37  27 S2        29.86S
HARLOWTON      MOCLDY    67  29  24 MISG      29.97
LAUREL           N/A     60  33  36 CALM      29.94R
$$

REGIONAL REPORTS...DAKOTAS

CITY           SKY/WX    TMP DP  RH WIND       PRES   REMARKS
WILLISTON      CLEAR     61  52  72 SW6       29.74F
MINOT          CLEAR     67  54  63 S12       29.76F
DICKINSON      CLEAR     58  51  78 S15       29.79F
BEACH            N/A     54  46  76 S8        29.83S
CROSBY           N/A     63  54  72 S14G20    29.72F
TIOGA            N/A     55  55 100 CALM      29.78S
WATFORD CITY     N/A     57  50  77 SE5       29.75S
BISMARCK       CLEAR     57  55  93 E7        29.85F
GRAND FORKS    CLEAR     55  54  96 S6        29.83R
FARGO          CLEAR     59  58  96 S7        29.88R
BUFFALO SD       N/A     57  47  69 S8        29.80R
RAPID CITY     CLEAR     55  49  80 SE3       29.89S
$$

REGIONAL REPORTS...WYOMING/IDAHO/WASHINGTON

CITY           SKY/WX    TMP DP  RH WIND       PRES   REMARKS
GILLETTE       CLEAR     63  38  39 VRB3      29.96R
SHERIDAN       CLEAR     53  42  66 CALM      29.95R
BUFFALO WY     CLEAR     65  30  27 W6        30.01R
CODY           CLEAR     67  32  27 CALM      30.05R
YELLOWSTONE LA   N/A     36  35  96 CALM      30.29R
IDAHO FALLS    CLOUDY    45  37  73 SW5       30.08R
SALMON         CLOUDY    51  42  71 CALM      30.07R
BOISE          CLEAR     60  32  34 SE6       30.00R
SPOKANE        PTCLDY    56  45  66 S8        29.98R
$$

REGIONAL REPORTS...ALBERTA

CITY           SKY/WX    TMP DP  RH WIND       PRES   REMARKS
EDMONTON       CLEAR     46  39  76 W12       29.88R
CALGARY        MOCLDY    52  37  58 NW5       29.99R
LETHBRIDGE     PTCLDY    45  39  81 W9        30.02R
MEDICINE HAT   CLEAR     50  43  76 W7        29.94R
$$

REGIONAL REPORTS...SASKATCHEWAN

CITY           SKY/WX    TMP DP  RH WIND       PRES   REMARKS
SWIFT CURRENT  CLEAR     54  46  76 NW18G28   29.77R
REGINA         PTCLDY    57  48  72 SE9       29.64F
SASKATOON      PTCLDY    57  52  82 NW15G25   29.65R
$$



USA.gov is the U.S. government's official web portal to all federal, state and local government web resources and services.